Regional Weather Roundup
Issued by NWS

Home | Current Version | Previous Version | Text Only | Print | Product List | Glossary On
Versions: 1 2 3 4 5 6 7 8 9 10 11 12 13 14 15 16 17 18 19 20 21 22 23 24 25 26 27 28 29 30 31 32 33 34 35 36 37 38 39 40 41 42 43 44 45 46 47 48 49 50
000
ASUS43 KOAX 281510
RWRNE

WEATHER ROUNDUP FOR NEBRASKA
NATIONAL WEATHER SERVICE OMAHA NE
1000 AM CDT THU APR 28 2016

NOTES: SATELLITE DATA IS BEING USED TO AUGMENT CLOUD COVER ABOVE
       12000 FEET.
       "FAIR" INDICATES FEW OR NO CLOUDS BELOW 12,000 FEET WITH NO
       SIGNIFICANT WEATHER AND/OR OBSTRUCTIONS TO VISIBILITY.

  * THESE STATIONS DO NOT REPORT WEATHER SUCH AS RAIN...SNOW OR FOG.

NEZ001>004-019>022-054>056-281600-
NEBRASKA PANHANDLE

CITY           SKY/WX    TMP DP  RH WIND       PRES   REMARKS
SCOTTSBLUFF    PTSUNNY   39  27  62 N10       30.01R WCI  32
ALLIANCE       CLOUDY    33  29  85 N14       30.00R WCI  23
CHADRON        CLOUDY    36  32  85 N8        30.04R WCI  30
KIMBALL        CLOUDY    35  29  79 NW9       29.99S WCI  28
SIDNEY         CLOUDY    35  28  75 N14       30.00R WCI  26
$$

NEZ057>060-069>072-079>082-281600-
SOUTHWEST NEBRASKA

CITY           SKY/WX    TMP DP  RH WIND       PRES   REMARKS
NORTH PLATTE   SUNNY     42  33  70 N16       29.99R
IMPERIAL       MOSUNNY   39  30  70 N12       30.01R WCI  32
LEXINGTON      SUNNY     44  37  75 N16G23    29.98R
MCCOOK         SUNNY     44  32  62 N12G17    30.00F
OGALLALA       PTSUNNY   40  29  63 N13       30.01R WCI  33
$$

NEZ005>010-023>029-035>040-094-281600-
NORTH CENTRAL NEBRASKA

CITY           SKY/WX    TMP DP  RH WIND       PRES   REMARKS
VALENTINE      CLOUDY    37  34  89 N13       30.00R WCI  29
AINSWORTH      CLOUDY    37  37  99 NW15      29.98R WCI  28
BROKEN BOW     CLOUDY    38  36  92 NW15      29.97R WCI  29
O`NEILL        CLOUDY    41  39  95 NW15      29.95S
ORD            CLOUDY    41  38  89 NW14      29.96R
THEDFORD       CLOUDY    37  34  91 NW14      30.01R WCI  28
$$

NEZ041-046>049-061>064-073>077-083>087-281600-
SOUTH CENTRAL NEBRASKA

CITY           SKY/WX    TMP DP  RH WIND       PRES   REMARKS
GRAND ISLAND   CLOUDY    43  40  89 NW14G24   29.95R
AURORA         CLOUDY    46  43  88 NW20G26   29.93R
HASTINGS       CLOUDY    44  38  79 NW17      29.95R
HEBRON         CLOUDY    46  41  84 NW13G18   29.94S
HOLDREGE       PTSUNNY   43  37  78 NW10      29.98R
KEARNEY *      CLOUDY    43  36  75 N20       29.96R
YORK           CLOUDY    46  41  81 N15G23    29.92R
$$

NEZ011>018-030>034-042>045-281600-
NORTHEAST NEBRASKA

CITY           SKY/WX    TMP DP  RH WIND       PRES   REMARKS
NORFOLK        CLOUDY    44  39  82 N15       29.90R
ALBION         DRIZZLE   43  41  93 N10       29.93R
BLAIR          CLOUDY    46  43  88 NW12G17   29.86R
COLUMBUS *     CLOUDY    46  36  66 NW15      29.92R
FREMONT        CLOUDY    46  43  91 NW15      29.89R
TEKAMAH        CLOUDY    46  43  89 NW13      29.88R
WAYNE          CLOUDY    43  41  91 N14       29.91R
$$

NEZ050>053-065>068-078-088>093-281600-
SOUTHEAST NEBRASKA

CITY           SKY/WX    TMP DP  RH WIND       PRES   REMARKS
LINCOLN        CLOUDY    50  40  68 NW20      29.90R
OMAHA EPPLEY   CLOUDY    47  43  86 NW12      29.87R
BEATRICE       CLOUDY    47  43  85 NW12      29.91S
FALLS CITY     CLOUDY    51  45  79 NW15      29.88R
NEBRASKA CITY  CLOUDY    48  45  88 NW14      29.88R
PLATTSMOUTH    CLOUDY    47  44  89 NW14      29.86R
$$

NEZ044-045-051>053-067-281600-
OMAHA AREA

CITY           SKY/WX    TMP DP  RH WIND       PRES   REMARKS
OMAHA EPPLEY   CLOUDY    47  43  86 NW12      29.87R
BLAIR          CLOUDY    46  43  88 NW12G17   29.86R
FREMONT        CLOUDY    46  43  91 NW15      29.89R
MILLARD        CLOUDY    47  42  82 NW13      29.87R
OFFUTT AFB     CLOUDY    48  44  87 NW13      29.86R
PLATTSMOUTH    CLOUDY    47  44  89 NW14      29.86R
WAHOO          CLOUDY    46  42  86 NW18G24   29.89R
$$




USA.gov is the U.S. government's official web portal to all federal, state and local government web resources and services.